Погода Гродно

Погода Гродно : погода сейчас, прогноз погоды и архив. Всё, что Вы хотите узнать о погоде Гродно!

Поиск расширенной информации на нашем сайте:

Другие новости

Новости СМИ2

Главная страница сайта

Новости сайта

03.07.2017

Напоминаем, что на нашем специализированном сайте Метеоцентр.Азия вы можете получить высокодетализированные автоматические прогнозы погоды по пунктам России, СНГ и мира в авиационном формате (включающие направление и скорость ветра, видимость, явления погоды, количество и форму облачности, нижнюю и верхнюю границу облачности).


Погода Гродно - сегодня

Время (UTC), дата Ветер
(°,м/с) 
Видим.   Явления Облачность Т
(°С)
Тd
(°С)
f(%) Тe
(°С)
Pmin
(гПа)
dP
(гПа)
Po
(мм)
O2
(г/м3)
Тmin Tmax R s Состояние
почвы
15 20.09.18 250 (З) 12000 м    ясно 
+26.8 +12.8 42 +32  1017.3  -0.8  750  273           
18 20.09.18 200 (Ю) 11000 м    3/0 верхняя 
[Ci fib]
+20.2 +15 72 +29  1017.6  750  278    +27.5       
21 20.09.18 220 (ЮЗ) 10 км    ясно 
+17.9 +13.9 77 +26  1017.5  -0.2  750  281           
00 21.09.18 200 (Ю) 10 км    ясно 
+16.3 +13.6 84 +23  1017.4  -0.3  750  282           
03 21.09.18 170 (Ю) 7000 м  дымка  ясно 
+14 +12.9 93 +19  1017.5  750  285           
06 21.09.18 170 (Ю) 8000 м  дымка  ясно 
+15.8 +12.7 82 +21  1017.4  750  283  +13.2         
09 21.09.18 180 (Ю) 12000 м    ясно 
+22.9 +13.6 56 +29  1016.8  -0.2  750  276           
12 21.09.18 180 (Ю) 7-10{11}  12000 м    3/3 1000 м 
[Cu hum]
+26 +11 39 +29  1014.8  -1.8  748  273           
15 21.09.18 180 (Ю) 7-10{10}  12000 м    3/0 верхняя 
[Ci fib]
+26.1 +10.9 39 +29  1012.1  -2.6  746  273           
18 21.09.18 160 (Ю) 4{10}  11000 м    3/0 верхняя 
[Ci fib]
+20.1 +11 56 +23  1010.5  -1.9  745  278    +26.4       
21 21.09.18 170 (Ю) 10 км    ясно 
+18.9 +13.8 72 +26  1009.1  -1.5  744  278           
00 22.09.18 170 (Ю) 10 км    8/0 средняя 
[Ac trans]
+18.3 +15.8 85 +29  1007.3  -1.8  743  277           
03 22.09.18 240 (ЮЗ) 10 км    8/0 средняя 
[Ac trans]
+17.1 +14.5 85 +25  1007  -0.4  742  278           
06 22.09.18 250 (З) 7-10{14}  10 км  в посл. час ливневой дождь  9/6 600 м кучево-дожд., средняя 
[Cb calv|Ac trans]
+12 +10.4 90 +13  1010.7  3.4  745  286  +11.9    0.9     
09 22.09.18 260 (З) 4{10}  12000 м  {ливн. осадки}  10/8 480 м средняя 
[St|Ac trans]
+12 +9.4 84 +11  1013.2  2.5  747  286      0.0     
12 22.09.18 240 (ЮЗ) 14000 м  {ливн. осадки}  9/8 500 м средняя 
[Sc|Ac trans]
+13.3 +6.7 64 +12  1013.7  0.5  747  286           
15 22.09.18 210 (ЮЗ) 14000 м    8/4 600 м средняя 
[Sc|Ac trans]
+14.5 +6.2 57 +14  1013.6  747  285      0.0     
18 22.09.18 230 (ЮЗ) 12000 м    6/0 средняя 
[Ac trans]
+11.6 +6.1 69 +11  1014  0.1  747  288    +15.2  0.0     
21 22.09.18 210 (ЮЗ) 10 км    4/0 верхняя 
[Ci fib]
+9.5 +6.5 82 +10  1014.3  0.2  747  290           
00 23.09.18 210 (ЮЗ) 10 км    3/0 верхняя 
[Ci fib]
+8.1 +6.1 87 +8  1013.9  -0.4  747  291           
03 23.09.18 210 (ЮЗ) 10 км    3/0 верхняя 
[Ci fib]
+6.9 +6 94 +6  1013.2  -0.8  746  292           
06 23.09.18 230 (ЮЗ) 10 км    8/0 средняя 
[Ac trans]
+8.5 +6.4 87 +7  1012.4  -0.7  746  290  +6.9         
09 23.09.18 220 (ЮЗ) 6{10}  10 км    8/6 1200 м средняя 
[Sc|Ac trans]
+10.8 +7 77 +9  1012.7  0.4  746  288           
12 23.09.18 250 (З) 7-11{11}  12000 м    8/6 1000 м средняя 
[Sc|Ac trans]
+14 +6.2 59 +13  1012  -0.4  746  285           
15 23.09.18 210 (ЮЗ) 7-11{11}  12000 м    8/3 1000 м средняя, верхняя 
[Sc|Ac trans|Ci fib]
+12.6 +7 69 +11  1010.8  -1.3  745  286           
Время (UTC), дата Ветер
(°,м/с) 
Видим.   Явления Облачность Т
(°С)
Тd
(°С)
f(%) Тe
(°С)
Pmin
(гПа)
dP
(гПа)
Po
(мм)
O2
(г/м3)
Тmin Tmax R s Состояние
почвы

Для получения пояснительной информации подведите курсор к названию столбца.

ПОГОДА Гродно - архив

Всё, что Вы хотите узнать о погоде Гродно - удобно и подробно!

Выберите нужную дату (начиная с 1 января 2015* года) и нажмите кнопку "Найти".
Будут отображены архивные сводки погоды по пункту Гродно, начиная с указанной даты.


Отображать данные в формате CSV (для использования в таблицах Excel)


Внимание! Наш архив погоды предназначен исключительно для личного некоммерческого использования в познавательных целях. Если Вам необходимы официальные справки о состоянии погоды (для производственных, юридических, коммерческих и т.п. целей), обращайтесь в органы Росгидромета.

*Примечание: данная дата относится к архиву по метеостанциям СССР (Россия, СНГ, Балтия).
Архив по метеостанциям Зарубежной Европы и Азии (кроме Китая) хранится 10 дней, по другим регионам земного шара (Китай, Африка, Америка, Австралия, Океания) - 1 день.

Гродно - район местоположения метеостанции


Название, широта, долгота, высота метеостанции:
Гродно 53.6°ш. 24.1°д. 134 м над ур. моря [Беларусь]

Дополнительная информация

В oтличие oт бoльшинства пoгoдных сайтoв мы публикуем пoдрoбную метеoинфoрмацию в детальнoм прoфессиoнальнoм фoрмате.

Характеристики температуры и влажнoсти вoздуха измеряются на высoте 2 м в тени вдали oт зданий и деревьев.
Скoрoсть ветра измеряется на высoте 10 м (на урoвне рoста челoвека скoрoсть ветра ниже в 1.5-2 раза). Если метеoстанция нахoдится в гoрoде или в лесу, тo скoрoсть ветра занижена на 2-4 м/с пo сравнению с oткрытым местoм. Скoрoсть ветра над акватoриями крупных рек и oзёр, а также на вершинах хoлмoв на 2-5 м/с выше, чем в oбычных услoвиях.
Атмoсфернoе давление в разных тoчках местнoсти мoжет значительнo oтличаться oт давления на метеoстанции, в зависимoсти oт услoвий рельефа (при пoдъёме на 10 м давление пoнижается примернo на 1 мм рт.ст.).